GFSNGP_850_dewp_108.txt.gz
Dewpoint
6 3 -0 3 2 0 2 -1 1 5 6 4 2 1 0 -0 -1 -0 -1 -1 -2 -1 -1 -0 1 2 3 6 8 9 9 10 10 11 11 11 10 10 9 9 8 8 8 8
5 4 3 5 -4 -7 1 3 5 7 7 1 -0 -1 -1 -1 -1 -2 -2 -2 -2 -1 -1 -1 1 1 0 2 5 7 9 9 10 10 10 10 10 9 8 8 8 8 8 8
-2 -5 -3 -0 -2 2 1 2 3 6 5 1 -0 -1 -2 -2 -2 -3 -3 -3 -2 -2 -1 -1 -1 2 -0 0 2 4 6 8 9 9 10 9 9 9 8 8 8 8 8 8
-2 -4 5 2 -0 0 2 1 1 2 3 1 -1 -2 -3 -3 -4 -4 -4 -3 -3 -2 -1 -1 -0 1 1 1 1 2 2 4 5 7 8 8 8 8 8 8 8 8 8 8
0 -1 1 2 1 1 3 3 0 1 0 2 -1 0 -2 -4 -4 -4 -4 -3 -3 -2 -2 -1 -0 -0 1 1 2 1 1 1 2 2 3 5 6 7 8 8 8 8 8 8
0 -1 4 2 -1 -1 -1 3 0 -1 -0 -0 1 3 -2 -4 -4 -4 -3 -4 -4 -4 -3 -1 -1 -0 1 0 1 1 -0 0 1 1 1 1 1 1 3 5 6 6 6 6
2 3 3 -1 -2 -1 3 2 0 -0 -1 -1 -2 -3 -4 -4 -5 -5 -4 -4 -5 -5 -5 -4 -2 -1 -1 -1 -1 -1 -0 -0 0 0 1 1 1 -0 -1 2 1 2 3 3
3 4 3 -2 -2 0 -0 -1 -0 -1 -1 -1 -2 -3 -4 -5 -5 -5 -5 -5 -5 -6 -6 -5 -4 -3 -3 -3 -3 -2 -1 -0 -0 -1 -0 0 0 -0 -1 -1 1 0 2 3
0 1 -1 -2 -1 -1 -1 -1 -2 -2 -2 -1 -2 -3 -5 -5 -6 -7 -7 -7 -7 -7 -7 -6 -6 -5 -4 -5 -5 -3 -2 -2 -2 -1 -0 -0 -0 -1 -0 -0 -1 -1 -0 -1
1 -1 -2 -2 -3 -3 -3 -3 -3 -4 -4 -4 -5 -5 -6 -7 -7 -8 -8 -8 -7 -7 -7 -7 -8 -7 -7 -5 -5 -5 -4 -4 -4 -3 -2 -1 -1 -1 -1 -2 -3 -2 -3 -4
-0 -1 -3 -3 -3 -3 -3 -4 -5 -6 -7 -7 -7 -7 -7 -8 -8 -8 -8 -8 -8 -8 -8 -8 -9 -9 -8 -7 -6 -6 -6 -6 -6 -5 -5 -5 -4 -4 -4 -5 -5 -5 -5 -5
-0 -1 -2 -3 -4 -4 -4 -6 -7 -8 -8 -8 -8 -8 -8 -9 -9 -9 -9 -9 -9 -8 -9 -10 -9 -8 -9 -8 -8 -7 -7 -7 -7 -7 -7 -7 -7 -7 -7 -6 -6 -6 -6 -6
-2 -3 -3 -3 -4 -5 -6 -8 -8 -9 -9 -9 -9 -9 -9 -9 -9 -10 -10 -10 -9 -10 -10 -11 -10 -9 -9 -9 -9 -9 -8 -8 -8 -8 -8 -8 -8 -8 -8 -8 -7 -7 -7 -8
-3 -3 -3 -3 -5 -5 -6 -8 -9 -9 -9 -9 -10 -10 -10 -10 -10 -10 -10 -10 -11 -11 -12 -12 -10 -10 -10 -10 -10 -9 -9 -9 -9 -9 -9 -9 -9 -9 -9 -9 -9 -9 -9 -9
-4 -4 -4 -5 -6 -7 -9 -9 -9 -9 -9 -10 -10 -10 -10 -10 -11 -11 -12 -12 -12 -13 -12 -12 -11 -11 -10 -10 -10 -10 -10 -10 -10 -10 -10 -10 -10 -10 -10 -10 -10 -11 -11 -10
-5 -5 -6 -8 -9 -10 -9 -9 -9 -10 -10 -10 -10 -10 -11 -11 -11 -12 -13 -13 -13 -13 -13 -12 -12 -12 -11 -11 -11 -10 -11 -11 -10 -10 -10 -10 -10 -11 -11 -11 -11 -11 -11 -12
-6 -7 -7 -8 -9 -9 -10 -10 -10 -10 -11 -11 -12 -12 -12 -12 -12 -13 -13 -14 -14 -15 -19 -20 -16 -14 -12 -11 -12 -11 -12 -11 -11 -11 -11 -11 -11 -12 -12 -12 -12 -11 -12 -12
-8 -8 -8 -8 -9 -10 -10 -10 -11 -11 -13 -13 -13 -14 -14 -14 -14 -15 -16 -17 -14 -14 -19 -23 -21 -20 -22 -14 -13 -12 -12 -12 -12 -12 -12 -12 -12 -12 -13 -13 -13 -14 -14 -15
-9 -9 -10 -10 -10 -10 -10 -11 -12 -14 -14 -14 -14 -15 -16 -17 -18 -19 -17 -15 -16 -20 -19 -23 -23 -17 -23 -16 -13 -14 -13 -13 -13 -13 -13 -14 -14 -14 -14 -14 -15 -15 -15 -16
-10 -10 -10 -10 -11 -11 -11 -12 -14 -14 -15 -15 -16 -17 -19 -21 -22 -22 -15 -14 -15 -19 -21 -17 -21 -25 -22 -18 -14 -15 -14 -14 -14 -14 -15 -14 -14 -15 -15 -16 -15 -16 -16 -17
-10 -11 -12 -13 -13 -14 -14 -14 -15 -15 -17 -19 -20 -20 -20 -16 -16 -17 -19 -14 -15 -17 -17 -17 -23 -29 -26 -17 -15 -16 -15 -15 -15 -15 -15 -15 -15 -16 -16 -16 -16 -17 -17 -17
-13 -13 -14 -14 -14 -14 -14 -15 -16 -17 -16 -17 -17 -18 -17 -14 -14 -14 -15 -17 -16 -19 -17 -19 -26 -32 -27 -22 -17 -17 -17 -17 -16 -16 -16 -16 -16 -16 -17 -17 -17 -18 -18 -18
-14 -14 -14 -14 -14 -14 -15 -15 -16 -16 -16 -16 -16 -18 -20 -15 -15 -16 -15 -16 -19 -25 -20 -23 -28 -29 -25 -18 -18 -18 -18 -18 -18 -18 -18 -18 -18 -17 -18 -18 -18 -19 -19 -19
-13 -13 -14 -13 -14 -14 -13 -14 -15 -15 -16 -16 -15 -17 -19 -16 -15 -16 -16 -17 -18 -21 -18 -19 -21 -25 -21 -19 -19 -19 -18 -19 -19 -19 -19 -19 -19 -19 -19 -19 -19 -20 -20 -20
-12 -12 -13 -14 -12 -12 -13 -13 -14 -13 -14 -14 -14 -15 -16 -17 -17 -17 -18 -18 -19 -19 -19 -18 -19 -21 -19 -19 -19 -19 -19 -19 -20 -21 -20 -20 -20 -20 -20 -20 -20 -20 -21 -21
-12 -11 -11 -12 -12 -12 -13 -13 -14 -13 -13 -13 -13 -14 -15 -16 -17 -18 -17 -18 -18 -18 -19 -19 -19 -19 -19 -20 -20 -20 -20 -20 -20 -20 -20 -20 -20 -21 -21 -21 -22 -21 -22 -21
-11 -12 -12 -12 -13 -14 -14 -14 -16 -14 -14 -14 -14 -14 -15 -17 -17 -17 -18 -18 -18 -19 -18 -18 -19 -19 -19 -20 -20 -20 -20 -20 -20 -21 -21 -22 -21 -21 -21 -22 -22 -22 -23 -24

GFSNGP_850_dewp_111.txt.gz
Dewpoint
5 4 6 6 6 6 5 4 7 5 4 3 1 0 -1 -1 -1 -2 -2 -2 -2 -2 -1 0 -0 0 2 3 5 7 9 10 10 10 11 11 11 11 11 10 9 9 8 8
5 4 4 6 2 3 4 6 6 5 4 2 -0 -2 -2 -2 -3 -3 -3 -3 -2 -2 -1 -0 -0 -0 0 2 2 4 6 8 9 10 10 11 10 10 10 9 9 8 8 8
4 2 2 5 3 2 3 3 3 4 4 1 -2 -2 -3 -3 -3 -3 -3 -3 -3 -3 -2 -2 -1 -0 -0 1 2 2 3 4 6 8 9 10 10 10 9 9 9 8 8 8
1 -0 6 3 0 0 2 2 1 2 1 -1 -2 -3 -4 -4 -4 -4 -3 -3 -4 -3 -2 -2 -1 -1 -0 1 1 1 1 2 3 4 5 6 8 9 9 9 8 8 8 8
3 5 5 1 -1 1 2 2 0 0 0 -0 -2 -1 -4 -4 -4 -4 -3 -3 -4 -4 -4 -3 -2 -2 -1 -0 0 1 1 0 1 2 2 3 3 4 6 8 8 8 8 8
2 4 5 1 -2 -2 -0 1 0 -1 -1 -1 -0 -1 -3 -4 -5 -4 -4 -4 -5 -5 -4 -3 -3 -3 -2 -2 -1 -0 0 -0 1 1 1 1 1 1 1 0 3 0 3 3
4 4 1 -1 -2 -2 1 1 -0 -0 -1 -2 -3 -4 -4 -5 -5 -6 -6 -5 -5 -6 -6 -5 -4 -4 -4 -4 -3 -3 -1 -0 0 1 0 0 0 1 0 0 1 0 1 1
2 2 1 -2 -2 -0 0 -1 -1 -1 -1 -2 -3 -4 -5 -6 -7 -7 -7 -7 -7 -7 -7 -7 -5 -5 -5 -5 -5 -4 -3 -1 -1 -0 -0 -0 -0 -0 -0 -0 0 0 1 1
0 0 -1 -1 -1 -2 -2 -2 -2 -3 -2 -3 -4 -5 -7 -7 -8 -8 -8 -7 -7 -7 -8 -8 -7 -6 -6 -6 -6 -5 -4 -3 -3 -2 -2 -2 -1 -0 -0 -1 -0 -0 -0 0
0 -1 -1 -2 -2 -3 -3 -3 -5 -6 -6 -5 -7 -7 -8 -8 -8 -8 -8 -8 -8 -8 -9 -9 -8 -8 -7 -6 -6 -6 -6 -6 -5 -4 -4 -3 -3 -3 -2 -2 -3 -3 -2 -2
-0 -2 -3 -3 -3 -3 -4 -6 -7 -8 -8 -8 -8 -8 -8 -9 -9 -9 -9 -9 -9 -9 -10 -9 -10 -9 -8 -7 -7 -7 -7 -7 -7 -7 -7 -6 -5 -5 -5 -5 -5 -5 -6 -5
-1 -1 -3 -3 -3 -4 -6 -8 -8 -9 -9 -9 -9 -9 -9 -9 -9 -9 -10 -10 -11 -10 -10 -10 -9 -9 -9 -9 -8 -8 -8 -8 -8 -8 -8 -8 -8 -8 -7 -7 -7 -7 -7 -7
-2 -3 -3 -4 -4 -5 -7 -9 -9 -9 -9 -9 -9 -9 -9 -10 -10 -10 -10 -11 -11 -11 -11 -10 -10 -10 -9 -10 -9 -9 -9 -9 -9 -8 -8 -8 -9 -9 -8 -8 -8 -8 -8 -8
-4 -4 -3 -3 -5 -6 -7 -9 -9 -9 -10 -10 -10 -10 -10 -11 -12 -12 -11 -11 -12 -12 -12 -11 -11 -10 -10 -10 -10 -10 -10 -10 -10 -9 -9 -9 -9 -10 -10 -10 -10 -10 -10 -10
-4 -4 -4 -5 -7 -9 -9 -9 -9 -9 -10 -10 -10 -10 -11 -12 -12 -12 -12 -13 -13 -14 -13 -12 -12 -11 -11 -11 -11 -11 -11 -10 -10 -10 -10 -10 -10 -10 -10 -11 -11 -11 -11 -11
-5 -5 -7 -9 -9 -9 -9 -9 -10 -10 -10 -11 -11 -11 -11 -12 -13 -13 -14 -14 -14 -16 -19 -18 -15 -13 -12 -11 -12 -11 -11 -11 -11 -11 -11 -11 -11 -11 -11 -11 -11 -11 -12 -12
-6 -6 -8 -9 -9 -10 -10 -10 -10 -11 -12 -13 -13 -13 -12 -13 -14 -15 -16 -16 -16 -17 -20 -21 -20 -22 -13 -12 -12 -12 -12 -12 -12 -12 -12 -12 -12 -12 -13 -12 -12 -12 -13 -13
-6 -7 -7 -8 -10 -10 -10 -11 -12 -13 -14 -14 -14 -14 -15 -16 -18 -18 -16 -15 -16 -20 -21 -23 -25 -22 -18 -15 -15 -14 -13 -13 -13 -13 -13 -13 -13 -13 -13 -13 -14 -14 -14 -14
-9 -9 -9 -9 -10 -11 -12 -13 -14 -14 -14 -15 -16 -17 -18 -21 -22 -20 -17 -15 -15 -18 -22 -22 -21 -23 -20 -14 -14 -15 -14 -14 -15 -14 -14 -15 -15 -14 -14 -14 -15 -15 -15 -16
-10 -10 -10 -10 -11 -13 -14 -14 -15 -15 -15 -17 -19 -19 -20 -19 -18 -20 -17 -15 -15 -17 -20 -22 -22 -27 -19 -16 -16 -15 -15 -15 -15 -14 -15 -15 -15 -16 -16 -16 -16 -16 -17 -17
-11 -11 -12 -12 -13 -14 -14 -15 -15 -16 -17 -16 -17 -17 -18 -16 -16 -16 -15 -16 -17 -17 -20 -21 -24 -30 -20 -18 -18 -17 -16 -16 -15 -16 -15 -15 -16 -16 -16 -17 -17 -17 -17 -18
-12 -13 -14 -14 -14 -14 -15 -15 -16 -16 -16 -16 -17 -18 -20 -17 -16 -16 -15 -16 -17 -20 -23 -23 -27 -28 -23 -20 -18 -17 -18 -17 -17 -17 -17 -16 -17 -17 -17 -17 -18 -18 -18 -18
-14 -14 -14 -14 -14 -15 -15 -15 -16 -16 -18 -18 -18 -17 -20 -17 -15 -16 -16 -17 -17 -20 -22 -20 -21 -25 -22 -20 -19 -18 -18 -18 -18 -18 -18 -18 -18 -18 -18 -18 -18 -19 -19 -19
-14 -14 -14 -14 -15 -15 -16 -15 -17 -15 -15 -15 -15 -15 -16 -17 -18 -17 -17 -17 -20 -20 -20 -19 -19 -20 -20 -19 -19 -19 -19 -19 -20 -20 -19 -19 -19 -20 -20 -20 -20 -20 -20 -20
-14 -14 -15 -15 -13 -12 -12 -13 -14 -13 -13 -13 -14 -14 -15 -15 -16 -18 -19 -18 -18 -19 -19 -19 -19 -19 -20 -20 -20 -20 -20 -20 -20 -20 -20 -21 -20 -20 -20 -20 -21 -21 -21 -21
-15 -14 -14 -14 -12 -11 -13 -13 -12 -13 -13 -13 -13 -14 -14 -15 -16 -18 -18 -19 -18 -18 -18 -19 -19 -19 -19 -19 -20 -21 -20 -20 -20 -21 -20 -21 -21 -21 -21 -21 -21 -22 -22 -22
-11 -11 -12 -13 -13 -14 -14 -14 -15 -16 -15 -15 -14 -15 -15 -16 -17 -18 -18 -18 -18 -18 -19 -19 -19 -19 -19 -20 -20 -20 -20 -20 -21 -21 -21 -21 -21 -22 -22 -22 -22 -22 -22 -23

GFSNGP_850_dewp_114.txt.gz
Dewpoint
5 5 5 5 7 6 6 5 4 4 2 0 -1 -2 -2 -2 -2 -3 -3 -3 -3 -2 -2 -1 0 0 1 1 2 3 5 7 9 9 11 11 10 9 9 10 11 10 10 10
5 4 4 4 4 4 5 4 3 1 1 -1 -2 -3 -3 -3 -3 -3 -3 -4 -3 -3 -2 -2 -1 -0 0 0 1 2 3 4 5 7 9 10 10 10 11 11 10 10 10 8
5 5 4 2 3 3 2 2 3 4 2 -1 -4 -4 -4 -4 -4 -3 -3 -4 -4 -3 -3 -2 -2 -1 -1 0 1 1 1 2 3 4 5 9 9 10 9 9 9 9 9 9
4 4 3 3 2 -0 0 2 1 1 -1 -3 -4 -4 -4 -4 -4 -4 -4 -5 -6 -4 -3 -3 -2 -2 -1 -0 -0 0 0 1 1 2 2 3 3 8 8 9 9 9 8 8
5 4 3 -0 -1 -0 1 1 1 -0 0 -2 -3 -2 -4 -5 -4 -4 -4 -5 -6 -5 -4 -3 -3 -3 -3 -1 -1 -1 -1 -0 0 1 1 1 2 2 2 3 5 6 8 8
4 3 3 0 -2 -2 -2 1 -0 -1 -2 -3 -1 -3 -4 -5 -6 -6 -6 -5 -7 -7 -5 -4 -4 -4 -4 -3 -2 -2 -2 -2 -1 -1 0 -0 0 0 1 1 1 1 1 4
3 2 1 -2 -2 -1 1 0 -1 -1 -3 -4 -4 -5 -6 -7 -7 -7 -7 -7 -7 -8 -7 -6 -5 -4 -4 -5 -5 -4 -3 -2 -1 -1 -1 -1 -0 0 1 0 0 1 1 1
1 -0 0 -2 -3 0 -1 -2 -2 -2 -2 -3 -4 -5 -7 -8 -8 -8 -7 -7 -8 -8 -8 -7 -6 -6 -6 -6 -6 -5 -5 -3 -2 -2 -2 -2 -1 -0 -0 -0 0 -0 0 0
0 -1 -1 -2 -2 -2 -3 -3 -5 -4 -3 -4 -6 -8 -8 -8 -8 -8 -8 -8 -9 -9 -8 -8 -7 -6 -7 -6 -6 -6 -6 -6 -5 -4 -3 -3 -2 -2 -1 -1 -1 -0 -0 -0
-1 -1 -2 -2 -3 -4 -5 -6 -7 -7 -6 -6 -8 -8 -9 -9 -9 -9 -9 -10 -10 -9 -9 -9 -8 -8 -7 -7 -7 -7 -7 -7 -7 -6 -6 -5 -4 -4 -4 -4 -3 -3 -3 -3
-1 -2 -2 -3 -3 -5 -7 -8 -8 -8 -8 -8 -8 -9 -9 -9 -9 -10 -10 -11 -10 -10 -10 -9 -9 -9 -9 -8 -8 -8 -8 -8 -8 -8 -8 -7 -7 -6 -6 -7 -7 -6 -6 -6
-1 -2 -3 -3 -3 -7 -8 -8 -9 -9 -9 -9 -9 -9 -9 -10 -10 -10 -11 -11 -11 -11 -10 -10 -10 -10 -10 -9 -9 -9 -9 -8 -8 -8 -9 -9 -8 -8 -8 -8 -8 -8 -8 -8
-2 -2 -4 -4 -5 -7 -9 -9 -9 -9 -9 -9 -9 -10 -10 -11 -11 -11 -11 -12 -12 -12 -11 -11 -10 -10 -10 -10 -10 -10 -10 -10 -9 -9 -9 -9 -9 -9 -9 -9 -9 -9 -9 -9
-4 -4 -4 -4 -5 -7 -8 -9 -9 -10 -10 -10 -10 -11 -11 -12 -12 -12 -12 -13 -14 -15 -13 -12 -11 -11 -11 -11 -11 -11 -10 -10 -10 -10 -10 -10 -10 -10 -10 -9 -9 -9 -10 -10
-3 -3 -5 -6 -7 -8 -9 -9 -9 -10 -10 -11 -11 -11 -12 -12 -13 -13 -14 -14 -15 -17 -17 -17 -15 -12 -11 -11 -11 -12 -12 -11 -11 -11 -11 -11 -11 -11 -11 -11 -11 -11 -10 -10
-5 -5 -6 -8 -9 -9 -9 -9 -10 -10 -11 -11 -11 -12 -12 -13 -14 -15 -15 -16 -17 -17 -19 -19 -20 -19 -14 -12 -12 -12 -12 -12 -12 -12 -12 -12 -12 -12 -12 -11 -11 -12 -12 -12
-7 -7 -9 -9 -9 -9 -9 -10 -11 -12 -13 -13 -13 -13 -13 -15 -16 -17 -16 -16 -17 -19 -20 -21 -23 -21 -17 -14 -14 -14 -13 -13 -13 -13 -13 -12 -13 -13 -13 -13 -13 -13 -13 -13
-6 -8 -9 -8 -9 -10 -11 -12 -13 -14 -14 -14 -15 -15 -17 -18 -20 -19 -16 -16 -16 -19 -22 -23 -22 -22 -19 -16 -15 -15 -14 -14 -14 -13 -14 -14 -14 -13 -14 -14 -14 -14 -15 -15
-7 -7 -8 -8 -10 -12 -13 -14 -14 -15 -15 -15 -17 -19 -20 -20 -21 -22 -18 -16 -16 -19 -21 -26 -24 -27 -22 -19 -17 -17 -15 -14 -14 -14 -14 -14 -15 -14 -14 -15 -15 -16 -16 -17
-9 -9 -9 -10 -11 -13 -14 -15 -15 -15 -16 -17 -18 -18 -17 -16 -17 -17 -17 -16 -18 -18 -20 -22 -26 -29 -24 -19 -19 -21 -17 -15 -15 -15 -15 -15 -15 -16 -16 -16 -16 -17 -17 -18
-10 -10 -11 -12 -13 -14 -15 -15 -15 -16 -16 -16 -16 -17 -17 -18 -17 -18 -18 -17 -18 -19 -24 -25 -27 -30 -26 -23 -23 -23 -20 -17 -16 -16 -16 -16 -16 -17 -17 -17 -17 -17 -18 -18
-11 -12 -13 -14 -15 -15 -15 -15 -15 -16 -16 -18 -19 -21 -22 -21 -18 -17 -17 -17 -17 -18 -21 -23 -23 -27 -25 -22 -23 -21 -19 -19 -18 -18 -18 -17 -18 -18 -18 -18 -18 -18 -18 -19
-13 -14 -14 -15 -15 -15 -15 -16 -17 -17 -17 -17 -16 -16 -17 -18 -18 -18 -17 -17 -18 -20 -21 -20 -21 -22 -23 -21 -21 -20 -19 -19 -19 -20 -19 -19 -19 -19 -19 -19 -19 -19 -19 -19
-14 -14 -14 -15 -15 -16 -17 -18 -18 -15 -14 -14 -15 -15 -15 -16 -16 -17 -18 -19 -19 -20 -20 -20 -20 -19 -20 -20 -21 -21 -20 -20 -20 -20 -20 -20 -20 -20 -20 -20 -20 -20 -20 -21
-14 -15 -15 -15 -16 -15 -15 -14 -14 -13 -14 -14 -14 -14 -14 -15 -15 -16 -18 -19 -19 -18 -19 -19 -19 -19 -19 -20 -20 -21 -20 -20 -20 -20 -21 -21 -21 -21 -21 -21 -21 -21 -22 -22
-15 -15 -15 -16 -13 -12 -13 -14 -13 -14 -14 -14 -14 -14 -14 -15 -16 -16 -18 -19 -19 -19 -18 -19 -19 -20 -19 -19 -20 -20 -21 -21 -21 -21 -21 -21 -21 -21 -21 -22 -22 -22 -22 -22
-15 -15 -15 -15 -14 -13 -14 -14 -14 -14 -15 -15 -16 -16 -15 -16 -16 -16 -18 -19 -19 -19 -19 -19 -19 -19 -19 -19 -20 -20 -20 -21 -21 -21 -21 -21 -21 -22 -22 -22 -22 -22 -22 -22

GFSNGP_850_dewp_117.txt.gz
Dewpoint
3 4 3 5 6 6 5 4 3 2 0 -1 -2 -2 -2 -2 -3 -3 -3 -4 -3 -3 -2 -1 -1 -0 0 0 1 2 3 4 5 6 8 9 11 11 11 11 10 9 9 10
4 1 1 2 3 4 3 1 1 -1 -1 -2 -3 -3 -3 -3 -3 -3 -4 -5 -5 -3 -3 -2 -2 -1 -1 -0 0 1 1 2 3 4 6 7 9 10 10 10 10 11 10 11
5 3 3 1 2 2 1 2 2 0 -1 -3 -4 -4 -4 -4 -4 -4 -5 -6 -5 -4 -4 -3 -3 -3 -2 -1 -1 0 0 1 1 2 3 4 5 7 8 8 9 10 10 10
4 4 2 1 -0 1 0 0 0 -1 -2 -3 -4 -4 -5 -5 -5 -4 -6 -7 -7 -5 -4 -4 -4 -3 -3 -2 -1 -1 -1 -0 -0 0 1 1 2 3 4 3 3 7 9 9
4 3 3 0 -1 -0 0 0 -0 -1 -2 -3 -4 -3 -5 -5 -6 -5 -6 -7 -8 -6 -5 -4 -4 -4 -4 -3 -3 -2 -1 -1 -1 -1 -1 -0 0 1 1 2 2 2 2 6
4 2 3 0 -2 -1 -2 -0 -1 -3 -3 -4 -2 -3 -5 -7 -7 -7 -7 -8 -8 -7 -6 -5 -5 -5 -5 -5 -5 -5 -3 -2 -1 -1 -1 -1 -1 -1 -0 0 1 1 2 2
2 2 0 -2 -2 0 1 -0 -1 -3 -4 -5 -5 -5 -6 -8 -7 -7 -8 -8 -9 -8 -7 -6 -6 -6 -6 -6 -6 -6 -5 -4 -2 -2 -1 -1 -1 -1 -1 -0 -0 -0 1 1
1 -1 0 -2 -3 -1 -1 -2 -2 -3 -4 -4 -5 -7 -8 -8 -8 -9 -9 -9 -9 -8 -8 -7 -7 -7 -7 -7 -7 -6 -6 -6 -5 -4 -3 -2 -2 -1 -1 -1 -1 -1 -1 -0
-1 -1 -2 -2 -2 -2 -3 -6 -5 -3 -4 -7 -8 -8 -8 -9 -9 -10 -10 -10 -10 -9 -9 -9 -8 -8 -7 -7 -7 -7 -7 -7 -7 -7 -6 -4 -3 -3 -2 -3 -2 -2 -3 -4
-2 -1 -2 -3 -5 -4 -7 -7 -6 -5 -6 -8 -8 -9 -9 -9 -10 -10 -11 -11 -10 -10 -9 -9 -9 -9 -9 -8 -8 -8 -8 -8 -8 -8 -7 -7 -6 -5 -5 -5 -5 -5 -5 -5
-2 -2 -2 -3 -5 -7 -8 -8 -8 -8 -8 -8 -9 -9 -9 -10 -10 -11 -11 -11 -11 -11 -10 -10 -10 -10 -10 -10 -9 -9 -9 -9 -9 -9 -9 -8 -8 -8 -8 -8 -8 -7 -7 -7
-2 -3 -3 -3 -6 -7 -7 -8 -9 -9 -9 -9 -9 -10 -10 -11 -11 -11 -12 -12 -12 -12 -11 -11 -11 -11 -11 -11 -10 -10 -10 -10 -9 -9 -9 -10 -9 -9 -9 -9 -8 -8 -8 -8
-2 -3 -4 -5 -7 -8 -9 -9 -9 -9 -9 -10 -10 -11 -11 -12 -12 -12 -13 -15 -15 -14 -13 -12 -11 -11 -11 -11 -11 -11 -11 -11 -11 -10 -10 -10 -10 -10 -10 -10 -9 -9 -9 -9
-4 -4 -4 -5 -7 -9 -9 -9 -9 -10 -10 -10 -11 -12 -12 -13 -13 -14 -14 -15 -17 -17 -17 -17 -15 -12 -12 -12 -12 -12 -12 -12 -11 -11 -11 -11 -11 -11 -11 -11 -10 -10 -10 -10
-4 -4 -5 -5 -7 -8 -9 -9 -9 -10 -11 -11 -12 -12 -13 -14 -14 -15 -15 -16 -17 -18 -19 -19 -19 -18 -16 -14 -14 -13 -13 -13 -13 -12 -12 -12 -12 -12 -12 -11 -11 -11 -11 -11
-5 -5 -6 -7 -8 -9 -9 -9 -9 -11 -11 -11 -12 -13 -14 -15 -16 -16 -16 -17 -18 -19 -20 -20 -21 -20 -19 -17 -16 -17 -16 -15 -14 -13 -13 -13 -13 -13 -13 -12 -12 -12 -12 -12
-5 -7 -7 -8 -9 -9 -9 -9 -11 -12 -13 -13 -14 -14 -15 -16 -17 -18 -18 -19 -18 -18 -21 -24 -25 -23 -22 -18 -17 -17 -17 -16 -15 -15 -14 -14 -14 -14 -14 -14 -14 -14 -14 -14
-7 -8 -9 -9 -9 -9 -10 -11 -13 -14 -14 -15 -15 -16 -17 -19 -20 -20 -20 -19 -17 -18 -21 -25 -28 -29 -26 -22 -19 -18 -17 -16 -15 -16 -15 -15 -15 -14 -15 -15 -15 -16 -17 -17
-6 -7 -9 -8 -9 -11 -13 -14 -15 -15 -15 -16 -17 -18 -17 -17 -17 -18 -19 -19 -19 -20 -25 -28 -29 -30 -29 -26 -21 -20 -22 -19 -16 -16 -16 -16 -15 -15 -16 -16 -16 -17 -17 -18
-6 -7 -8 -9 -11 -13 -15 -15 -16 -16 -16 -17 -16 -17 -17 -17 -17 -19 -20 -20 -19 -19 -23 -27 -28 -29 -29 -26 -24 -25 -25 -23 -18 -16 -16 -16 -17 -16 -17 -17 -17 -17 -18 -18
-8 -8 -9 -10 -13 -14 -15 -16 -16 -16 -16 -16 -17 -19 -20 -20 -21 -20 -19 -19 -18 -19 -21 -24 -24 -25 -26 -25 -24 -24 -23 -21 -19 -18 -18 -17 -17 -17 -18 -17 -18 -18 -18 -19
-9 -10 -11 -12 -14 -15 -15 -16 -16 -16 -17 -21 -22 -21 -22 -22 -20 -19 -19 -20 -20 -20 -22 -22 -22 -22 -23 -23 -23 -22 -22 -21 -20 -19 -19 -19 -19 -19 -19 -19 -19 -19 -19 -19
-11 -12 -13 -15 -15 -15 -16 -16 -17 -18 -19 -18 -18 -17 -17 -17 -17 -17 -18 -19 -20 -20 -21 -21 -21 -20 -21 -21 -22 -22 -23 -21 -20 -20 -21 -20 -20 -20 -20 -20 -20 -20 -20 -20
-13 -14 -14 -15 -16 -16 -16 -18 -21 -18 -16 -15 -15 -15 -15 -15 -15 -16 -17 -18 -20 -20 -19 -19 -20 -20 -20 -20 -20 -21 -21 -20 -21 -20 -20 -21 -21 -21 -21 -21 -21 -21 -21 -21
-13 -14 -15 -15 -16 -17 -18 -17 -17 -16 -16 -15 -15 -14 -14 -14 -14 -15 -16 -18 -19 -19 -19 -19 -19 -19 -20 -20 -20 -20 -21 -21 -21 -21 -21 -21 -21 -22 -21 -21 -21 -22 -22 -22
-14 -15 -15 -16 -17 -16 -14 -14 -14 -14 -15 -14 -15 -15 -15 -15 -14 -15 -16 -17 -19 -19 -19 -20 -19 -19 -19 -19 -20 -20 -20 -21 -21 -21 -21 -21 -21 -22 -22 -22 -22 -22 -22 -22
-14 -14 -15 -16 -16 -15 -14 -14 -14 -14 -13 -14 -16 -18 -19 -20 -17 -16 -17 -18 -18 -18 -18 -18 -18 -19 -19 -19 -20 -20 -20 -21 -21 -21 -21 -21 -21 -22 -22 -22 -22 -22 -22 -22

GFSNGP_850_dewp_120.txt.gz
Dewpoint
3 2 2 3 4 4 3 3 2 1 -1 -2 -3 -3 -3 -3 -4 -5 -5 -5 -5 -5 -4 -3 -2 -2 -1 -1 0 1 1 1 2 3 5 6 7 9 9 10 10 10 11 11
3 4 1 1 1 2 2 1 0 -1 -2 -3 -3 -4 -4 -4 -4 -5 -6 -7 -6 -5 -4 -4 -3 -4 -2 -1 -1 -0 0 0 0 1 2 4 5 6 7 8 9 10 10 10
3 2 -1 -0 1 1 0 -1 0 -1 -2 -3 -4 -5 -5 -5 -5 -6 -7 -8 -6 -6 -5 -5 -4 -4 -4 -3 -1 -1 -0 -0 -0 0 0 1 2 3 4 5 6 7 9 9
4 4 2 1 1 0 -1 -1 -1 -3 -3 -4 -4 -5 -6 -6 -6 -7 -8 -8 -7 -6 -6 -5 -5 -4 -4 -5 -3 -2 -1 -1 -1 -1 -0 -0 0 1 2 2 3 3 4 3
3 2 2 1 -1 -0 0 -1 -2 -1 -3 -4 -4 -4 -6 -7 -7 -8 -8 -9 -8 -7 -6 -6 -6 -6 -5 -5 -5 -4 -3 -2 -1 -1 -1 -0 -0 -0 -0 0 1 1 2 2
2 2 2 -1 -3 -2 -1 -0 -3 -3 -4 -5 -3 -4 -6 -7 -8 -9 -9 -9 -8 -7 -7 -7 -7 -7 -6 -6 -6 -7 -6 -5 -3 -2 -2 -1 -1 -1 -1 -1 -1 0 0 1
2 1 -0 -3 -2 -1 1 -1 -3 -5 -5 -6 -5 -6 -7 -8 -9 -10 -9 -9 -9 -8 -8 -8 -7 -7 -7 -7 -7 -7 -7 -7 -6 -5 -4 -3 -2 -1 -1 -1 -1 -1 -1 -1
1 -0 1 -2 -2 -1 -1 -2 -3 -4 -4 -7 -7 -8 -8 -9 -10 -10 -10 -9 -9 -9 -9 -9 -9 -9 -8 -8 -8 -8 -8 -8 -7 -7 -6 -5 -4 -4 -3 -3 -3 -2 -3 -2
-1 -2 -3 -3 -3 -3 -4 -4 -3 -4 -6 -7 -8 -9 -9 -9 -10 -11 -11 -10 -10 -10 -10 -10 -10 -10 -10 -9 -9 -9 -9 -9 -9 -8 -8 -7 -7 -6 -5 -5 -5 -6 -5 -5
-2 -2 -3 -5 -4 -6 -6 -5 -3 -4 -7 -8 -8 -9 -9 -10 -11 -11 -11 -11 -11 -11 -10 -10 -11 -11 -11 -10 -10 -10 -10 -10 -9 -9 -9 -9 -8 -8 -8 -8 -7 -7 -7 -7
-2 -2 -3 -6 -6 -7 -7 -7 -6 -7 -8 -8 -9 -9 -10 -10 -11 -12 -13 -12 -12 -12 -11 -11 -11 -11 -12 -12 -12 -11 -11 -11 -10 -10 -10 -10 -9 -9 -9 -9 -9 -9 -9 -9
-4 -4 -4 -5 -7 -8 -7 -8 -8 -9 -9 -9 -10 -11 -11 -11 -11 -13 -15 -15 -15 -14 -14 -13 -12 -12 -12 -13 -12 -12 -12 -12 -11 -11 -11 -11 -11 -10 -10 -10 -10 -9 -10 -9
-2 -4 -4 -5 -7 -8 -9 -9 -9 -9 -9 -10 -11 -12 -12 -13 -13 -14 -15 -17 -17 -17 -17 -18 -17 -16 -15 -15 -14 -14 -14 -13 -13 -12 -12 -12 -12 -12 -11 -11 -11 -10 -10 -10
-3 -5 -6 -7 -8 -9 -9 -9 -9 -10 -10 -11 -12 -13 -13 -14 -14 -15 -16 -17 -18 -18 -19 -19 -19 -18 -18 -17 -17 -18 -17 -17 -16 -14 -13 -13 -13 -13 -12 -12 -12 -12 -12 -11
-4 -4 -5 -5 -8 -9 -9 -9 -9 -10 -11 -11 -12 -13 -14 -15 -16 -16 -17 -18 -19 -20 -21 -22 -23 -22 -20 -19 -18 -18 -19 -19 -18 -17 -15 -14 -14 -14 -14 -13 -13 -13 -13 -13
-5 -4 -5 -6 -7 -8 -9 -9 -9 -11 -11 -12 -13 -14 -15 -16 -17 -18 -18 -19 -19 -20 -22 -23 -25 -27 -26 -25 -22 -21 -21 -19 -18 -18 -18 -16 -15 -14 -14 -15 -15 -15 -15 -15
-5 -7 -7 -7 -7 -8 -9 -9 -10 -12 -13 -13 -14 -16 -16 -18 -19 -19 -19 -19 -20 -22 -23 -25 -27 -30 -31 -29 -25 -23 -23 -23 -21 -19 -18 -17 -16 -15 -15 -16 -16 -16 -17 -18
-5 -6 -7 -7 -8 -9 -9 -10 -11 -14 -15 -15 -16 -17 -18 -18 -18 -18 -20 -21 -21 -21 -24 -30 -32 -33 -32 -30 -27 -25 -25 -27 -25 -20 -17 -17 -17 -16 -16 -16 -17 -17 -17 -18
-6 -8 -8 -9 -9 -9 -10 -12 -14 -15 -16 -16 -17 -17 -17 -17 -19 -21 -24 -23 -22 -22 -24 -28 -31 -32 -31 -30 -29 -28 -28 -27 -24 -21 -18 -17 -17 -17 -17 -17 -17 -18 -18 -18
-7 -7 -8 -8 -9 -12 -14 -15 -16 -16 -17 -17 -17 -17 -19 -22 -23 -24 -23 -23 -22 -23 -24 -26 -29 -29 -28 -28 -27 -27 -26 -26 -23 -21 -19 -18 -18 -18 -18 -18 -18 -18 -19 -19
-6 -6 -8 -8 -11 -14 -15 -16 -16 -17 -17 -17 -19 -23 -24 -25 -24 -22 -22 -24 -24 -24 -24 -25 -25 -25 -25 -25 -25 -25 -25 -24 -23 -21 -21 -20 -19 -19 -19 -19 -19 -19 -19 -19
-8 -8 -8 -9 -12 -15 -15 -16 -16 -17 -17 -21 -23 -21 -21 -20 -20 -19 -19 -20 -21 -22 -22 -22 -22 -21 -21 -21 -22 -22 -23 -24 -22 -21 -21 -21 -20 -20 -20 -20 -20 -20 -20 -20
-9 -9 -10 -11 -14 -15 -15 -16 -16 -18 -21 -20 -19 -18 -18 -17 -17 -16 -16 -18 -18 -21 -21 -20 -20 -20 -20 -21 -21 -21 -21 -22 -21 -21 -20 -20 -21 -21 -21 -21 -21 -21 -21 -21
-10 -10 -12 -14 -15 -16 -16 -16 -18 -22 -20 -17 -16 -15 -15 -14 -14 -15 -15 -16 -17 -19 -20 -20 -19 -19 -20 -21 -20 -20 -20 -21 -21 -21 -21 -21 -21 -21 -21 -21 -22 -22 -22 -22
-12 -13 -14 -15 -16 -17 -18 -21 -22 -20 -17 -16 -16 -15 -15 -14 -15 -14 -15 -15 -17 -18 -20 -20 -20 -20 -20 -20 -20 -20 -21 -20 -21 -21 -21 -21 -21 -22 -22 -22 -22 -22 -22 -22
-12 -14 -15 -15 -15 -16 -18 -19 -18 -17 -16 -15 -14 -15 -17 -19 -19 -18 -15 -16 -17 -19 -19 -19 -19 -19 -19 -19 -19 -19 -20 -20 -20 -21 -21 -21 -21 -21 -22 -22 -22 -22 -22 -23
-12 -13 -15 -15 -15 -16 -16 -15 -15 -16 -14 -14 -14 -15 -19 -21 -20 -21 -18 -17 -18 -18 -18 -18 -19 -19 -19 -19 -19 -20 -20 -20 -20 -21 -21 -21 -21 -22 -22 -22 -22 -22 -23 -23